Location: ???????
(55.5931°N, 39.3286°E)
Time: 20:19:31
(UTC+00:00)

ATLAS 2AS CENTAUR R/B - Pass Details

Date: 14 April 2024
Orbit: 1015 x 1196 km, 63.7° (Epoch: 18 May)

Event Time Altitude Azimuth Distance (km) Brightness Sun altitude
Rises 01:10:17 0° 192° (SSW) 4,057 5.3 -9.7°
Reaches altitude 10° 01:13:14 10° 185° (S) 3,080 4.8 -9.3°
Maximum altitude 01:19:52 38° 121° (ESE) 1,670 4.0 -8.5°
Drops below altitude 10° 01:26:19 10° 56° (NE) 2,984 6.8 -7.8°
Sets 01:29:07 0° 49° (NE) 3,918 7.7 -7.4°
